Погода в Приморском

Россия / Приморский край     43°06′13″N   131°35′43″E
темп.,
°C
ветер,
м/с
пор.,
м/с
влажн.,
%
обл.,
%
осадки,
мм/ч
давл.,
гПа
погр.,
м
19 мая, ср
ср1901:00+9юв229715 0.0 100936
04:00+8юв239931 0.0 100839
07:00+9юв129764 0.0 100987
10:00+11ююв349278 0.0 1009245
13:00+14ююв458144 0.0 1009357
16:00+13ююв468543 0.0 1008259
19:00+12ююв459370 0.0 1007173
22:00+10в349899 2.1 1010134
20 мая, чт
чт2001:00+11зюз119871 0.6 101041
04:00+11з229731 0.6 101018
07:00+11юв11941 0.0 101020
10:00+13ююв338947 0.0 1010176
13:00+15ююв337789 0.1 1010174
16:00+15ююв3375100 0.1 1009160
19:00+11ю2290100 0.0 101098
22:00+10вюв2298100 0.0 101147
21 мая, пт
пт2101:00+10в0198100 0.0 101128
04:00+10ююв1198100 0.0 100921
07:00+11ссв1195100 0.0 100832
10:00+14ююв1176100 0.0 1008165
13:00+16ю2367100 0.0 1006306
16:00+14ююз2278100 0.0 100598
19:00+17з3366100 0.0 100323
22:00+13в2277100 0.0 100418
22 мая, сб
сб2201:00+14сз2273100 0.0 100315
04:00+14зсз2268100 0.1 100225
07:00+13с2274100 0.1 100223
10:00+16всв2366100 0.1 1004251
13:00+15ююв3369100 0.0 1005249
16:00+20ююз345099 0.0 1004339
19:00+18юз6961100 0.0 1005201
22:00+11ююв58910 0.0 1010191
23 мая, вс
вс2301:00+9ююз349619 0.0 1011116
04:00+9ююз35969 0.0 1012104
07:00+10юз389296 0.0 1013285
10:00+12ю6979100 0.0 1014506
13:00+12ю597977 0.0 1014497
16:00+11ю478698 0.0 1013420
19:00+11ю4692100 0.0 1013359
22:00+10ю3696100 0.1 1013328